Weather History for Santa Monica, CA

Change the Weather History Date:

Sunday, February 9, 2014

  Actual Average Record
Temperature  
Mean Temperature 58 °F -  
Max Temperature 64 °F 65 °F 85 °F (1964)
Min Temperature 51 °F 47 °F 35 °F (1939)
Degree Days  
Heating Degree Days 8    
Growing Degree Days 8 (Base 50)    
Moisture  
Dew Point 51 °F    
Average Humidity 77    
Maximum Humidity 90    
Minimum Humidity 59    
Precipitation  
Precipitation 0.00 in - - ()
Sea Level Pressure  
Sea Level Pressure 30.17 in    
Wind  
Wind Speed 2 mph (SW)    
Max Wind Speed 9 mph    
Max Gust Speed -    
Visibility 9 miles    
Events      
Averages and records for this station are not official NWS values.
T = Trace of Precipitation, MM = Missing Value Source: NWS Daily Summary

Daily Weather History Graph

Daily Weather History Graph

Search for Another Location

Airport:

Trip Planner

Search our weather history database for the weather conditions in past years. The results will help you decide how hot, cold, wet, or windy it might be!

Date:

Astronomy

Feb. 09, 2014 Rise Set
Actual Time 6:44 AM PST 5:32 PM PST
Civil Twilight 6:18 AM PST 5:58 PM PST
Nautical Twilight 5:48 AM PST 6:27 PM PST
Astronomical Twilight 5:19 AM PST 6:56 PM PST
Moon 1:20 PM PST (2/9) 2:48 AM PST (2/9)
Length of Visible Light 11h 39m
Length of Day
10h 48m
Waxing Gibbous, 78% of the Moon is Illuminated
Feb 9
Waxing Gibbous
Feb 14
Full
Feb 22
Last Quarter
Mar 1
New
Mar 8
First Quarter

Hourly Weather History & Observations

Time (PST) Temp. Dew Point Humidity Pressure Visibility Wind Dir Wind Speed Gust Speed Precip Events Conditions
12:51 AM 53.1 °F 48.9 °F 86% 30.23 in 10.0 mi Calm Calm - N/A   Clear
1:51 AM 51.1 °F 48.0 °F 89% 30.21 in 10.0 mi Calm Calm - N/A   Scattered Clouds
2:02 AM 51.8 °F 48.2 °F 88% 30.21 in 10.0 mi Calm Calm - N/A   Mostly Cloudy
2:51 AM 54.0 °F 48.9 °F 83% 30.22 in 10.0 mi Calm Calm - N/A   Overcast
3:51 AM 54.0 °F 48.9 °F 83% 30.21 in 10.0 mi Calm Calm - N/A   Overcast
4:51 AM 55.0 °F 51.1 °F 86% 30.19 in 10.0 mi ENE 3.5 mph - N/A   Overcast
5:51 AM 55.9 °F 51.1 °F 84% 30.19 in 10.0 mi Calm Calm - N/A   Overcast
6:51 AM 55.9 °F 51.1 °F 84% 30.19 in 5.0 mi Calm Calm - N/A   Overcast
7:51 AM 55.9 °F 52.0 °F 87% 30.21 in 5.0 mi Calm Calm - N/A   Overcast
8:51 AM 57.9 °F 51.1 °F 78% 30.22 in 7.0 mi Calm Calm - N/A   Overcast
9:51 AM 60.1 °F 51.1 °F 72% 30.22 in 8.0 mi Calm Calm - N/A   Overcast
10:51 AM 62.1 °F 50.0 °F 65% 30.21 in 9.0 mi East 4.6 mph - N/A   Mostly Cloudy
11:51 AM 63.0 °F 48.9 °F 60% 30.18 in 10.0 mi Calm Calm - N/A   Overcast
12:21 PM 62.6 °F 50.0 °F 63% 30.17 in 10.0 mi SSW 6.9 mph - N/A   Mostly Cloudy
12:36 PM 64.4 °F 50.0 °F 59% 30.16 in 10.0 mi SSW 8.1 mph - N/A   Overcast
12:51 PM 64.0 °F 50.0 °F 60% 30.15 in 9.0 mi SSW 9.2 mph - N/A   Scattered Clouds
12:59 PM 64.4 °F 50.0 °F 59% 30.15 in 10.0 mi SW 8.1 mph - N/A   Scattered Clouds
1:51 PM 63.0 °F 51.1 °F 65% 30.13 in 10.0 mi Variable 6.9 mph - N/A   Scattered Clouds
2:51 PM 62.1 °F 52.0 °F 70% 30.13 in 10.0 mi Variable 4.6 mph - N/A   Partly Cloudy
3:16 PM 62.6 °F 51.8 °F 68% 30.12 in 10.0 mi WSW 5.8 mph - N/A   Clear
3:51 PM 61.0 °F 52.0 °F 72% 30.10 in 10.0 mi SW 6.9 mph - N/A   Clear
4:51 PM 60.1 °F 52.0 °F 75% 30.11 in 10.0 mi West 5.8 mph - N/A   Clear
5:51 PM 59.0 °F 52.0 °F 78% 30.13 in 10.0 mi WSW 5.8 mph - N/A   Clear
6:51 PM 59.0 °F 52.0 °F 78% 30.13 in 10.0 mi Calm Calm - N/A   Clear
7:51 PM 57.0 °F 53.1 °F 87% 30.12 in 10.0 mi Calm Calm - N/A   Clear
8:51 PM 57.9 °F 54.0 °F 87% 30.14 in 10.0 mi SW 3.5 mph - N/A   Clear
9:15 PM 57.2 °F 53.6 °F 88% 30.15 in 10.0 mi Calm Calm - N/A   Partly Cloudy
9:51 PM 55.9 °F 53.1 °F 90% 30.12 in 10.0 mi ENE 3.5 mph - N/A   Clear
10:51 PM 55.9 °F 53.1 °F 90% 30.14 in 10.0 mi Calm Calm - N/A   Clear
11:51 PM 55.0 °F 51.1 °F 86% 30.14 in 10.0 mi Calm Calm - N/A   Clear